SCP
-0 -0 -0 -0 -0 -0 -0 -0 -0 -0 -0 -0 -0 -0 -0 -0 -0 -0 -0 -0 -0 -0 -0 -0 -0 -0 -0 -0 -0 -0 -0 -0 -0 -0 -0 -0 -0 -0 -0 -0 0 0 0
0 0 -0 -0 -0 -0 -0 -0 -0 -0 -0 -0 -0 -0 -0 -0 -0 -0 -0 -0 -0 -0 -0 -0 -0 -0 -0 -0 -0 -0 -0 -0 -0 -0 -0 -0 -0 -0 -0 0 0 0 0
-0 -0 0 -0 -0 -0 -0 -0 -0 -0 -0 0 -0 -0 -0 -0 -0 -0 -0 -0 -0 -0 -0 -0 -0 -0 -0 -0 -0 -0 -0 -0 -0 -0 -0 0 0 -0 0 0 0 0 0
-0 0 -0 -0 -0 -0 -0 0 0 -0 -0 -0 -0 -0 -0 -0 -0 -0 -0 -0 -0 -0 -0 -0 -0 -0 -0 -0 -0 -0 -0 -0 -0 -0 0 0 0 -0 0 0 0 0 0
-0 0 -0 0 0 0 -0 0 0 -0 -0 -0 -0 -0 -0 -0 -0 -0 -0 -0 -0 -0 -0 -0 -0 -0 -0 -0 -0 -0 -0 -0 -0 -0 0 0 0 0 0 0 0 0 0
-0 0 0 0 0 0 -0 -0 0 -0 -0 -0 -0 -0 -0 -0 -0 -0 -0 -0 -0 -0 -0 -0 -0 -0 -0 -0 -0 -0 -0 -0 -0 0 0 0 0 0 0 0 0 0 0
0 0 0 0 0 0 0 -0 -0 -0 -0 -0 -0 -0 -0 -0 -0 -0 -0 -0 -0 -0 -0 -0 -0 -0 -0 -0 -0 -0 -0 -0 -0 0 0 0 0 0 0 0 0 0 0
-0 0 0 0 0 0 0 0 -0 -0 -0 -0 -0 -0 -0 -0 -0 -0 -0 -0 -0 -0 -0 -0 -0 -0 -0 -0 -0 -0 -0 -0 -0 0 0 0 0 0 0 0 -0 -0 0
0 0 0 -0 0 0 0 0 -0 -0 -0 -0 -0 -0 -0 -0 -0 -0 -0 -0 -0 -0 -0 -0 -0 -0 -0 -0 -0 -0 -0 -0 0 0 0 0 0 0 0 0 0 0 0
0 0 0 0 0 0 0 0 0 -0 -0 -0 -0 -0 -0 -0 -0 -0 -0 -0 -0 -0 -0 -0 -0 -0 -0 -0 -0 -0 -0 -0 0 0 0 0 0 -0 0 0 0 0 0
0 0 0 0 0 0 0 0 -0 -0 -0 -0 -0 -0 0 0 0 0 0 0 0 0 0 0 0 0 0 0 0 0 0 0 0 0 0 0 0 0 0 0 0 0 0
0 0 0 0 0 0 0 0 0 0 0 0 0 0 0 0 0 0 0 0 0 0 0 0 0 0 0 0 0 0 0 0 0 0 0 0 0 0 0 0 0 0 0
-0 0 0 0 0 0 0 0 0 0 0 0 0 0 0 0 0 0 0 0 0 0 0 0 0 0 0 0 0 0 0 0 0 0 0 0 0 0 0 0 0 0 0
-0 -0 0 0 0 0 0 0 0 0 0 0 0 0 0 0 0 0 0 0 0 0 0 0 0 0 0 0 0 0 0 0 0 0 0 0 0 0 0 0 0 0 0
0 0 0 0 0 0 0 0 0 0 0 0 0 0 0 0 0 0 0 0 0 0 0 0 0 0 0 0 0 0 0 0 0 0 0 0 0 0 0 0 0 0 0
0 0 0 0 0 0 0 0 0 0 0 0 0 0 0 0 0 0 0 0 0 0 0 0 0 0 0 0 0 0 0 0 0 0 0 0 0 0 0 0 0 0 0
0 0 0 0 0 0 0 0 0 0 0 0 0 0 0 0 0 0 0 0 0 0 0 0 0 0 0 0 0 0 0 0 0 0 0 0 0 0 0 0 0 0 0
0 -0 0 0 0 0 0 0 0 0 0 0 0 0 0 0 0 0 0 0 0 0 0 0 0 0 0 0 0 0 0 0 0 0 0 0 0 0 0 0 0 0 0
-0 -0 -0 0 0 0 0 0 0 0 0 0 0 0 0 0 0 0 0 0 0 0 0 0 0 0 0 0 0 0 0 0 0 0 0 0 0 0 0 0 0 0 0
0 -0 -0 0 0 0 0 0 0 0 0 0 0 0 0 0 0 0 0 0 0 0 0 0 0 0 0 0 0 0 0 0 0 0 0 0 0 0 0 0 0 0 0
0 0 0 0 0 0 0 0 0 0 0 0 0 0 0 0 0 0 0 0 0 0 0 0 0 0 0 0 0 0 0 0 0 0 0 0 0 0 0 0 0 0 0
0 0 0 0 0 0 0 0 0 0 0 0 0 0 0 0 0 0 0 0 0 0 0 0 0 0 0 0 0 0 0 0 0 0 0 0 0 0 0 0 0 0 0
0 0 0 0 0 0 0 0 0 0 0 0 0 0 0 0 0 0 0 0 0 0 0 0 0 0 0 0 0 0 0 0 0 0 0 0 0 0 0 0 0 0 0
0 0 0 0 0 0 0 0 0 0 0 0 0 0 0 0 0 0 0 0 0 0 0 0 0 0 0 0 0 0 0 0 0 0 0 0 0 0 0 0 0 0 0
0 0 0 0 0 0 0 0 0 0 0 0 0 0 0 0 0 0 0 0 0 0 0 0 0 0 0 0 0 0 0 0 0 0 0 0 0 0 0 0 0 0 0
0 0 0 0 0 0 0 0 0 0 0 0 0 0 0 0 0 0 0 0 0 0 0 0 0 0 0 0 0 0 0 0 0 0 0 0 0 0 0 0 0 0 0
Wind_Speed_500mb
36 30 19 16 22 22 22 24 24 21 17 17 15 12 13 17 21 26 27 25 25 27 30 32 32 36 40 37 36 37 42 44 35 36 39 39 39 40 35 33 39 39 38
35 30 18 19 23 24 22 24 23 21 17 17 17 19 22 28 30 35 31 31 31 30 30 31 35 38 37 36 35 36 37 39 36 34 37 41 40 41 41 40 40 40 40
30 25 18 21 23 23 24 24 21 20 19 21 24 25 29 30 32 33 34 33 33 32 33 34 35 40 40 37 33 34 33 36 34 34 37 41 43 42 42 42 40 39 40
29 20 19 20 21 23 25 24 21 20 23 22 23 16 29 34 28 34 30 33 33 34 35 36 39 41 37 31 29 30 29 29 31 35 38 41 41 40 40 38 37 37 36
30 23 19 19 20 20 24 25 23 19 26 25 27 20 27 28 29 32 31 31 34 36 37 37 38 36 33 29 31 34 33 34 33 31 33 41 38 35 36 36 35 32 30
30 23 21 23 24 27 28 29 24 27 29 23 27 22 20 25 25 27 31 32 35 36 37 36 35 34 32 31 32 35 35 32 29 28 31 34 32 29 31 31 29 29 31
30 27 26 27 27 33 33 29 28 26 22 25 20 19 21 23 24 25 30 32 33 34 33 33 34 33 32 32 28 30 30 30 29 31 31 29 29 23 24 27 29 28 24
26 29 28 28 29 31 29 30 27 19 19 16 16 18 22 22 23 27 28 29 30 30 31 33 33 32 30 28 24 23 22 23 25 24 23 19 20 16 17 17 16 13 13
24 27 27 26 27 29 29 28 27 21 15 16 17 19 22 22 22 25 26 27 28 28 30 31 31 30 27 23 20 15 18 18 18 21 19 17 20 20 17 11 10 13 14
25 26 28 26 27 26 29 28 24 18 17 16 18 20 24 24 23 24 23 24 25 26 27 27 25 23 20 18 16 11 13 13 12 14 20 20 24 14 9 10 13 16 18
32 30 30 29 29 30 26 30 25 21 17 16 19 22 24 24 23 23 22 21 22 22 22 20 17 15 14 14 13 7 7 12 13 11 17 24 15 2 5 15 12 16 20
40 36 35 32 30 31 31 30 28 26 21 17 19 21 22 22 22 21 20 20 19 19 17 14 12 12 11 9 8 4 3 6 6 12 12 11 5 5 11 14 16 19 15
41 39 36 34 30 29 30 28 31 30 25 23 21 20 21 22 22 22 20 18 17 15 12 11 10 9 6 6 5 2 2 4 6 4 6 1 7 9 12 17 18 17 22
50 47 38 34 33 29 31 31 30 33 30 28 22 20 19 18 17 17 17 16 15 13 11 9 9 6 5 2 2 3 6 2 3 5 6 0 5 7 11 17 12 21 21
54 54 45 39 36 31 28 32 35 34 33 30 26 20 19 18 16 16 16 15 13 12 10 9 7 6 3 4 6 7 8 13 11 16 14 3 2 3 9 5 16 19 19
61 56 51 47 40 36 33 33 34 36 33 32 28 24 22 21 21 20 18 16 15 12 10 8 9 7 3 2 6 12 13 14 13 19 18 1 4 5 11 18 17 16 17
67 61 60 54 46 44 39 34 38 37 36 34 30 29 27 25 23 21 21 20 18 16 15 15 13 11 10 10 9 17 17 17 21 22 19 9 9 10 17 16 15 15 15
57 70 64 60 57 51 48 40 41 39 38 36 35 34 31 29 28 27 26 24 23 21 20 22 19 14 10 10 14 18 21 18 20 21 21 19 17 15 18 17 18 14 15
55 56 66 67 64 60 54 47 45 44 43 40 39 37 35 36 34 31 30 27 26 23 23 24 22 15 12 12 15 21 21 22 23 26 24 21 18 18 19 17 14 12 14
57 57 57 64 68 68 61 56 51 51 50 47 44 42 41 40 38 36 34 33 31 28 29 28 24 19 15 15 15 17 22 24 21 24 24 22 20 22 22 19 15 15 14
62 66 66 64 67 75 74 70 66 59 56 55 51 47 47 46 43 43 42 40 38 37 34 30 28 24 21 23 17 20 24 24 22 25 26 26 26 25 24 21 17 16 14
71 71 69 67 67 72 80 79 74 64 58 57 55 53 53 51 48 46 44 43 40 37 35 35 35 34 28 30 25 25 24 26 30 33 32 31 30 29 26 23 20 16 13
78 74 75 72 71 70 79 84 81 74 67 65 66 62 60 56 53 51 46 43 43 41 36 31 34 36 34 36 35 30 19 24 30 41 41 39 36 34 31 26 23 17 14
72 70 71 74 76 71 75 85 88 83 79 74 70 67 63 61 59 56 51 47 46 46 45 42 38 41 43 43 41 38 41 46 31 21 39 48 47 44 37 31 26 20 16
71 67 70 75 79 75 74 80 84 87 85 78 75 72 69 66 65 61 57 55 55 53 53 51 51 47 48 51 50 47 50 53 53 51 37 43 52 51 45 38 31 24 20
75 73 71 74 79 77 75 77 81 81 82 83 81 78 74 70 70 70 65 64 63 62 60 58 54 55 49 53 53 54 56 57 58 57 64 65 56 52 49 45 37 30 24
Wind_Direction_500mb
168 162 146 139 129 123 124 117 112 109 100 95 90 80 74 93 98 99 97 97 93 86 87 83 90 89 89 89 86 82 78 73 85 77 80 78 72 73 81 70 64 67 64
162 166 155 147 143 133 130 122 116 107 96 82 82 85 89 93 93 92 93 89 87 85 87 90 92 96 97 88 82 81 78 70 71 76 78 78 73 70 69 66 66 66 64
159 153 151 145 158 154 143 132 120 111 98 78 94 85 93 90 96 91 91 90 89 88 88 92 98 104 101 94 86 89 75 63 70 73 76 76 70 69 67 66 64 62 59
160 158 153 143 157 159 155 148 132 127 114 108 105 82 118 106 97 96 89 91 91 90 90 92 100 107 109 103 95 80 68 69 74 76 76 74 72 69 67 64 60 57 56
167 157 139 150 156 160 159 152 142 140 131 130 122 104 100 106 105 98 93 91 92 93 93 95 102 106 109 106 100 90 79 78 76 74 74 68 66 63 64 61 57 51 45
160 146 151 149 147 150 152 156 158 148 146 160 129 127 99 101 102 101 96 97 96 96 96 98 103 106 105 101 93 89 82 76 69 63 64 65 59 57 59 50 40 37 37
157 160 156 146 143 140 140 143 146 151 166 141 125 116 111 110 107 104 101 99 100 100 101 102 103 104 101 97 92 88 82 74 66 63 72 71 63 50 48 42 51 56 55
173 166 160 149 145 147 147 148 146 145 156 133 130 124 117 118 110 104 106 104 103 105 107 106 106 106 102 96 86 83 80 73 65 64 67 74 73 57 55 45 44 51 32
184 176 168 163 156 156 157 161 158 157 160 144 137 132 123 120 116 113 113 112 114 114 113 111 110 107 102 95 90 75 71 66 58 56 51 57 64 58 65 47 30 10 5
192 187 181 177 169 164 168 168 170 169 161 148 144 141 135 133 131 123 121 122 120 117 116 115 113 110 106 100 100 82 66 51 41 41 37 47 65 65 63 40 33 33 24
195 196 193 188 183 175 176 180 180 180 174 163 155 149 145 144 140 134 129 125 121 120 121 121 116 109 104 102 104 103 51 66 36 38 43 61 80 55 7 52 21 11 31
202 201 199 198 197 189 183 184 186 188 186 178 169 158 152 147 144 140 139 138 134 133 135 131 126 117 111 91 89 101 70 62 34 44 68 98 150 314 23 15 16 58 63
205 209 201 200 202 206 200 195 194 196 200 196 185 172 162 156 156 156 156 153 149 148 149 141 133 130 105 71 61 16 344 306 300 48 65 76 301 8 15 19 75 19 21
207 209 205 200 201 201 208 206 204 203 204 208 200 188 183 171 172 170 170 170 168 165 168 168 162 160 144 84 23 359 325 309 266 287 308 85 333 356 16 87 37 9 22
212 212 205 206 201 203 209 209 210 209 208 211 212 204 198 190 196 193 192 188 189 188 192 194 188 191 181 68 23 314 297 310 280 291 293 201 294 5 92 37 352 10 26
214 219 205 214 208 209 218 215 214 212 210 215 216 211 211 210 214 207 206 204 213 212 217 221 204 211 203 252 281 277 277 297 287 293 289 239 294 308 311 323 335 356 17
220 219 211 213 217 216 221 223 220 215 216 218 217 218 218 219 222 219 224 224 228 231 230 229 217 217 210 206 237 265 271 273 281 298 287 287 297 295 312 323 326 345 3
219 218 215 214 218 222 223 225 225 222 222 221 220 222 225 226 229 227 232 236 240 239 234 231 225 228 238 251 248 261 269 251 258 294 278 280 286 298 319 319 321 340 345
216 219 219 221 221 225 227 229 235 228 227 225 224 228 231 233 234 236 241 242 244 258 251 235 228 230 243 258 264 269 261 241 265 287 273 271 283 301 311 315 318 331 332
220 225 226 224 223 225 227 229 236 233 232 229 227 229 232 236 240 242 245 244 247 247 251 235 232 237 245 258 264 244 241 247 260 271 276 276 280 295 306 305 311 322 322
222 227 229 227 223 222 224 225 230 232 231 232 230 232 233 235 239 243 246 246 247 247 255 248 234 225 235 247 249 237 240 241 248 260 263 274 277 283 295 296 298 306 309
224 225 229 231 227 226 226 230 234 239 239 239 236 235 236 238 240 242 248 248 247 244 242 238 231 229 233 243 242 241 237 242 250 253 257 267 276 281 288 284 284 295 296
225 226 230 231 229 230 230 230 234 238 240 239 237 237 238 239 241 243 244 246 247 244 241 234 232 234 243 245 248 242 250 244 249 249 253 260 267 272 277 279 277 281 284
231 234 233 238 235 234 231 231 234 239 239 241 241 242 243 243 245 247 247 248 250 248 244 240 241 242 249 253 245 253 257 266 255 252 254 253 258 263 267 269 268 271 275
233 235 238 240 237 236 235 234 237 239 244 246 247 249 247 249 250 250 250 249 249 248 247 245 243 245 252 253 251 261 265 262 261 258 257 255 256 258 258 259 262 264 265
237 236 236 241 239 238 238 238 240 243 244 246 248 250 252 252 252 252 252 250 249 248 246 246 246 245 249 258 260 266 269 266 259 263 255 258 260 259 257 254 254 253 253
Wind_Speed_850mb
36 30 19 16 22 22 22 24 24 21 17 17 15 12 13 17 21 26 27 25 25 27 30 32 32 36 40 37 36 37 42 44 35 36 39 39 39 40 35 33 39 39 38
35 30 18 19 23 24 22 24 23 21 17 17 17 19 22 28 30 35 31 31 31 30 30 31 35 38 37 36 35 36 37 39 36 34 37 41 40 41 41 40 40 40 40
30 25 18 21 23 23 24 24 21 20 19 21 24 25 29 30 32 33 34 33 33 32 33 34 35 40 40 37 33 34 33 36 34 34 37 41 43 42 42 42 40 39 40
29 20 19 20 21 23 25 24 21 20 23 22 23 16 29 34 28 34 30 33 33 34 35 36 39 41 37 31 29 30 29 29 31 35 38 41 41 40 40 38 37 37 36
30 23 19 19 20 20 24 25 23 19 26 25 27 20 27 28 29 32 31 31 34 36 37 37 38 36 33 29 31 34 33 34 33 31 33 41 38 35 36 36 35 32 30
30 23 21 23 24 27 28 29 24 27 29 23 27 22 20 25 25 27 31 32 35 36 37 36 35 34 32 31 32 35 35 32 29 28 31 34 32 29 31 31 29 29 31
30 27 26 27 27 33 33 29 28 26 22 25 20 19 21 23 24 25 30 32 33 34 33 33 34 33 32 32 28 30 30 30 29 31 31 29 29 23 24 27 29 28 24
26 29 28 28 29 31 29 30 27 19 19 16 16 18 22 22 23 27 28 29 30 30 31 33 33 32 30 28 24 23 22 23 25 24 23 19 20 16 17 17 16 13 13
24 27 27 26 27 29 29 28 27 21 15 16 17 19 22 22 22 25 26 27 28 28 30 31 31 30 27 23 20 15 18 18 18 21 19 17 20 20 17 11 10 13 14
25 26 28 26 27 26 29 28 24 18 17 16 18 20 24 24 23 24 23 24 25 26 27 27 25 23 20 18 16 11 13 13 12 14 20 20 24 14 9 10 13 16 18
32 30 30 29 29 30 26 30 25 21 17 16 19 22 24 24 23 23 22 21 22 22 22 20 17 15 14 14 13 7 7 12 13 11 17 24 15 2 5 15 12 16 20
40 36 35 32 30 31 31 30 28 26 21 17 19 21 22 22 22 21 20 20 19 19 17 14 12 12 11 9 8 4 3 6 6 12 12 11 5 5 11 14 16 19 15
41 39 36 34 30 29 30 28 31 30 25 23 21 20 21 22 22 22 20 18 17 15 12 11 10 9 6 6 5 2 2 4 6 4 6 1 7 9 12 17 18 17 22
50 47 38 34 33 29 31 31 30 33 30 28 22 20 19 18 17 17 17 16 15 13 11 9 9 6 5 2 2 3 6 2 3 5 6 0 5 7 11 17 12 21 21
54 54 45 39 36 31 28 32 35 34 33 30 26 20 19 18 16 16 16 15 13 12 10 9 7 6 3 4 6 7 8 13 11 16 14 3 2 3 9 5 16 19 19
61 56 51 47 40 36 33 33 34 36 33 32 28 24 22 21 21 20 18 16 15 12 10 8 9 7 3 2 6 12 13 14 13 19 18 1 4 5 11 18 17 16 17
67 61 60 54 46 44 39 34 38 37 36 34 30 29 27 25 23 21 21 20 18 16 15 15 13 11 10 10 9 17 17 17 21 22 19 9 9 10 17 16 15 15 15
57 70 64 60 57 51 48 40 41 39 38 36 35 34 31 29 28 27 26 24 23 21 20 22 19 14 10 10 14 18 21 18 20 21 21 19 17 15 18 17 18 14 15
55 56 66 67 64 60 54 47 45 44 43 40 39 37 35 36 34 31 30 27 26 23 23 24 22 15 12 12 15 21 21 22 23 26 24 21 18 18 19 17 14 12 14
57 57 57 64 68 68 61 56 51 51 50 47 44 42 41 40 38 36 34 33 31 28 29 28 24 19 15 15 15 17 22 24 21 24 24 22 20 22 22 19 15 15 14
62 66 66 64 67 75 74 70 66 59 56 55 51 47 47 46 43 43 42 40 38 37 34 30 28 24 21 23 17 20 24 24 22 25 26 26 26 25 24 21 17 16 14
71 71 69 67 67 72 80 79 74 64 58 57 55 53 53 51 48 46 44 43 40 37 35 35 35 34 28 30 25 25 24 26 30 33 32 31 30 29 26 23 20 16 13
78 74 75 72 71 70 79 84 81 74 67 65 66 62 60 56 53 51 46 43 43 41 36 31 34 36 34 36 35 30 19 24 30 41 41 39 36 34 31 26 23 17 14
72 70 71 74 76 71 75 85 88 83 79 74 70 67 63 61 59 56 51 47 46 46 45 42 38 41 43 43 41 38 41 46 31 21 39 48 47 44 37 31 26 20 16
71 67 70 75 79 75 74 80 84 87 85 78 75 72 69 66 65 61 57 55 55 53 53 51 51 47 48 51 50 47 50 53 53 51 37 43 52 51 45 38 31 24 20
75 73 71 74 79 77 75 77 81 81 82 83 81 78 74 70 70 70 65 64 63 62 60 58 54 55 49 53 53 54 56 57 58 57 64 65 56 52 49 45 37 30 24
Wind_Direction_850mb
168 162 146 139 129 123 124 117 112 109 100 95 90 80 74 93 98 99 97 97 93 86 87 83 90 89 89 89 86 82 78 73 85 77 80 78 72 73 81 70 64 67 64
162 166 155 147 143 133 130 122 116 107 96 82 82 85 89 93 93 92 93 89 87 85 87 90 92 96 97 88 82 81 78 70 71 76 78 78 73 70 69 66 66 66 64
159 153 151 145 158 154 143 132 120 111 98 78 94 85 93 90 96 91 91 90 89 88 88 92 98 104 101 94 86 89 75 63 70 73 76 76 70 69 67 66 64 62 59
160 158 153 143 157 159 155 148 132 127 114 108 105 82 118 106 97 96 89 91 91 90 90 92 100 107 109 103 95 80 68 69 74 76 76 74 72 69 67 64 60 57 56
167 157 139 150 156 160 159 152 142 140 131 130 122 104 100 106 105 98 93 91 92 93 93 95 102 106 109 106 100 90 79 78 76 74 74 68 66 63 64 61 57 51 45
160 146 151 149 147 150 152 156 158 148 146 160 129 127 99 101 102 101 96 97 96 96 96 98 103 106 105 101 93 89 82 76 69 63 64 65 59 57 59 50 40 37 37
157 160 156 146 143 140 140 143 146 151 166 141 125 116 111 110 107 104 101 99 100 100 101 102 103 104 101 97 92 88 82 74 66 63 72 71 63 50 48 42 51 56 55
173 166 160 149 145 147 147 148 146 145 156 133 130 124 117 118 110 104 106 104 103 105 107 106 106 106 102 96 86 83 80 73 65 64 67 74 73 57 55 45 44 51 32
184 176 168 163 156 156 157 161 158 157 160 144 137 132 123 120 116 113 113 112 114 114 113 111 110 107 102 95 90 75 71 66 58 56 51 57 64 58 65 47 30 10 5
192 187 181 177 169 164 168 168 170 169 161 148 144 141 135 133 131 123 121 122 120 117 116 115 113 110 106 100 100 82 66 51 41 41 37 47 65 65 63 40 33 33 24
195 196 193 188 183 175 176 180 180 180 174 163 155 149 145 144 140 134 129 125 121 120 121 121 116 109 104 102 104 103 51 66 36 38 43 61 80 55 7 52 21 11 31
202 201 199 198 197 189 183 184 186 188 186 178 169 158 152 147 144 140 139 138 134 133 135 131 126 117 111 91 89 101 70 62 34 44 68 98 150 314 23 15 16 58 63
205 209 201 200 202 206 200 195 194 196 200 196 185 172 162 156 156 156 156 153 149 148 149 141 133 130 105 71 61 16 344 306 300 48 65 76 301 8 15 19 75 19 21
207 209 205 200 201 201 208 206 204 203 204 208 200 188 183 171 172 170 170 170 168 165 168 168 162 160 144 84 23 359 325 309 266 287 308 85 333 356 16 87 37 9 22
212 212 205 206 201 203 209 209 210 209 208 211 212 204 198 190 196 193 192 188 189 188 192 194 188 191 181 68 23 314 297 310 280 291 293 201 294 5 92 37 352 10 26
214 219 205 214 208 209 218 215 214 212 210 215 216 211 211 210 214 207 206 204 213 212 217 221 204 211 203 252 281 277 277 297 287 293 289 239 294 308 311 323 335 356 17
220 219 211 213 217 216 221 223 220 215 216 218 217 218 218 219 222 219 224 224 228 231 230 229 217 217 210 206 237 265 271 273 281 298 287 287 297 295 312 323 326 345 3
219 218 215 214 218 222 223 225 225 222 222 221 220 222 225 226 229 227 232 236 240 239 234 231 225 228 238 251 248 261 269 251 258 294 278 280 286 298 319 319 321 340 345
216 219 219 221 221 225 227 229 235 228 227 225 224 228 231 233 234 236 241 242 244 258 251 235 228 230 243 258 264 269 261 241 265 287 273 271 283 301 311 315 318 331 332
220 225 226 224 223 225 227 229 236 233 232 229 227 229 232 236 240 242 245 244 247 247 251 235 232 237 245 258 264 244 241 247 260 271 276 276 280 295 306 305 311 322 322
222 227 229 227 223 222 224 225 230 232 231 232 230 232 233 235 239 243 246 246 247 247 255 248 234 225 235 247 249 237 240 241 248 260 263 274 277 283 295 296 298 306 309
224 225 229 231 227 226 226 230 234 239 239 239 236 235 236 238 240 242 248 248 247 244 242 238 231 229 233 243 242 241 237 242 250 253 257 267 276 281 288 284 284 295 296
225 226 230 231 229 230 230 230 234 238 240 239 237 237 238 239 241 243 244 246 247 244 241 234 232 234 243 245 248 242 250 244 249 249 253 260 267 272 277 279 277 281 284
231 234 233 238 235 234 231 231 234 239 239 241 241 242 243 243 245 247 247 248 250 248 244 240 241 242 249 253 245 253 257 266 255 252 254 253 258 263 267 269 268 271 275
233 235 238 240 237 236 235 234 237 239 244 246 247 249 247 249 250 250 250 249 249 248 247 245 243 245 252 253 251 261 265 262 261 258 257 255 256 258 258 259 262 264 265
237 236 236 241 239 238 238 238 240 243 244 246 248 250 252 252 252 252 252 250 249 248 246 246 246 245 249 258 260 266 269 266 259 263 255 258 260 259 257 254 254 253 253